sat.trackr.live / text

‹ back to catalog

BEIDOU-3 G1 (PRN 130)

NORAD 43683 · 2018-085A

PAYLOAD ACTIVE UNKNOWN

§ Identity

Operator
Country
PRC
Launch date
2018-11-01
Launch site
XICLF
Launch vehicle
Mass (kg)
RCS (m²)

Purposes: comms, nav

External: N2YO · Heavens-Above · Gunter

§ Orbital elements

Epoch: 2026-09-14T21:24:22.516992Z

Period
1,436.10 min
Inclination
2.6159°
Eccentricity
0.0006067
Mean motion
1.00271909 rev/d
Perigee alt
35,761.0 km
Apogee alt
35,812.1 km
Semi-major
42,164.7 km
B*
0.0000e+0
RAAN
94.8351°
Arg perigee
20.3724°
Mean anomaly
359.8200°
Rev number
2,896

§ Raw data

BEIDOU-3 G1 (PRN 130)1 43683U 18085A   26257.89192728 -.00000115  00000+0  00000+0 0  99902 43683   2.6159  94.8351 0006067  20.3724 359.8200  1.00271909 28967

JSON: /api/v1/satellites/43683 · /tle

For live sub-satellite position, see the globe view (requires WebGL).

§ Visibility from observer

Set your observer location to see the next 7 days of passes ≥ 10°. The values pass through the URL so the page stays shareable.

No JS? Fill the form by hand. The geolocation button needs JavaScript.